Regional Weather Roundup
Issued by NWS

Home | Current Version | Previous Version | Text Only | Print | Product List | Glossary Off
Versions: 1 2 3 4 5 6 7 8 9 10 11 12 13 14 15 16 17 18 19 20 21 22 23 24 25 26 27 28 29 30 31 32 33 34 35 36 37 38 39 40 41 42 43 44 45 46 47 48 49 50

000
ASUS43 KOAX 300010
RWRNE

WEATHER ROUNDUP FOR NEBRASKA
NATIONAL WEATHER SERVICE OMAHA NE
700 PM CDT FRI MAY 29 2015

NOTES: SATELLITE DATA IS BEING USED TO AUGMENT CLOUD COVER ABOVE
       12000 FEET.
       "FAIR" INDICATES FEW OR NO CLOUDS BELOW 12,000 FEET WITH NO
       SIGNIFICANT WEATHER AND/OR OBSTRUCTIONS TO VISIBILITY.

  * THESE STATIONS DO NOT REPORT WEATHER SUCH AS RAIN...SNOW OR FOG.

NEZ001>004-019>022-054>056-300100-
NEBRASKA PANHANDLE

CITY           SKY/WX    TMP DP  RH WIND       PRES   REMARKS
SCOTTSBLUFF    LGT RAIN  52  48  86 N14       30.27S
6HR MIN TEMP:  50; 6HR MAX TEMP:  54; 6HR PCP:  0.57;

ALLIANCE       CLOUDY    47  45  93 N16       30.25F
6HR MIN TEMP:  47; 6HR MAX TEMP:  50; 6HR PCP:  0.41;

CHADRON        CLOUDY    49  44  83 NE6       30.29S
6HR MIN TEMP:  47; 6HR MAX TEMP:  49; 6HR PCP:  0.21;

KIMBALL          N/A    N/A N/A N/A MISG        N/A
SIDNEY         CLOUDY    50  45  83 N18       30.26R
6HR MIN TEMP:  50; 6HR MAX TEMP:  63; 6HR PCP: TRACE;

$$

NEZ057>060-069>072-079>082-300100-
SOUTHWEST NEBRASKA

CITY           SKY/WX    TMP DP  RH WIND       PRES   REMARKS
NORTH PLATTE   CLOUDY    53  48  83 N25G37    30.15F
6HR MIN TEMP:  53; 6HR MAX TEMP:  70; 6HR PCP:  0.11;

IMPERIAL       CLOUDY    56  49  77 N17G28    30.18R
6HR MIN TEMP:  55; 6HR MAX TEMP:  70;

LEXINGTON      CLOUDY    56  53  89 N26G33    30.10F
MCCOOK         CLOUDY    61  51  70 N25G35    30.12R
6HR MIN TEMP:  61; 6HR MAX TEMP:  77; 6HR PCP: TRACE;

OGALLALA       CLOUDY    55  48  77 N23       30.20S
$$

NEZ005>010-023>029-035>040-094-300100-
NORTH CENTRAL NEBRASKA

CITY           SKY/WX    TMP DP  RH WIND       PRES   REMARKS
VALENTINE      CLOUDY    48  46  93 N13       30.24R
6HR MIN TEMP:  48; 6HR MAX TEMP:  54; 6HR PCP:  0.02;

AINSWORTH      RAIN      48  47  98 N21G26    30.22R
BROKEN BOW     LGT RAIN  53  49  86 N28G36    30.15R
6HR MIN TEMP:  53; 6HR MAX TEMP:  73; 6HR PCP: TRACE;

O`NEILL        LGT RAIN  51  49  95 N22G30    30.16R
ORD            CLOUDY    53  49  86 N26G33    30.11R
6HR MIN TEMP:  53; 6HR MAX TEMP:  70; 6HR PCP: TRACE;

THEDFORD       RAIN      49  47  95 N17G25    30.21S
$$

NEZ041-046>049-061>064-073>077-083>087-300100-
SOUTH CENTRAL NEBRASKA

CITY           SKY/WX    TMP DP  RH WIND       PRES   REMARKS
GRAND ISLAND   CLOUDY    59  49  69 N25G35    30.07R
6HR MIN TEMP:  59; 6HR MAX TEMP:  78;

AURORA         CLOUDY    61  52  73 NW31      30.04R
HASTINGS       PTSUNNY   61  52  72 N28G37    30.04R
6HR MIN TEMP:  61; 6HR MAX TEMP:  77;

HEBRON         HVY RAIN  73  60  62 N9G21     29.92S
HOLDREGE       LGT RAIN  57  53  86 N22G28    30.07R
KEARNEY *      CLOUDY    59  48  67 N26G36    30.09R
YORK           PTSUNNY   64  55  72 N18G33    30.00R
$$

NEZ011>018-030>034-042>045-300100-
NORTHEAST NEBRASKA

CITY           SKY/WX    TMP DP  RH WIND       PRES   REMARKS
NORFOLK        LGT RAIN  56  53  90 N22G28    30.04R
6HR MIN TEMP:  56; 6HR MAX TEMP:  77; 6HR PCP: TRACE;

ALBION         CLOUDY    55  49  79 N20G33    30.06R
BLAIR          CLOUDY    71  62  71 N24G30    29.90R
COLUMBUS *     CLOUDY    61  52  72 N22G33    30.02R
FREMONT        PTSUNNY   71  61  70 N20G29    29.94R
TEKAMAH        CLOUDY    68  61  78 N23G33    29.93R
6HR MIN TEMP:  69; 6HR MAX TEMP:  80; 6HR PCP: TRACE;

WAYNE          CLOUDY    57  53  87 N21       30.03R
$$

NEZ050>053-065>068-078-088>093-300100-
SOUTHEAST NEBRASKA

CITY           SKY/WX    TMP DP  RH WIND       PRES   REMARKS
LINCOLN        PTSUNNY   75  59  57 N23G31    29.92R
6HR MIN TEMP:  74; 6HR MAX TEMP:  81;

OMAHA EPPLEY   CLOUDY    77  61  57 S8        29.87S
6HR MIN TEMP:  74; 6HR MAX TEMP:  79;

BEATRICE       CLOUDY    75  63  64 S6        29.90F
FALLS CITY     PTSUNNY   74  66  76 S8        29.90F
6HR MIN TEMP:  70; 6HR MAX TEMP:  75;

NEBRASKA CITY  PTSUNNY   74  58  55 SW8       29.90F
PLATTSMOUTH    PTSUNNY   76  60  57 S9        29.89S
$$

NEZ044-045-051>053-067-300100-
OMAHA AREA

CITY           SKY/WX    TMP DP  RH WIND       PRES   REMARKS
OMAHA EPPLEY   CLOUDY    77  61  57 S8        29.87S
6HR MIN TEMP:  74; 6HR MAX TEMP:  79;

BLAIR          CLOUDY    71  62  71 N24G30    29.90R
FREMONT        PTSUNNY   71  61  70 N20G29    29.94R
MILLARD        CLOUDY    70  62  78 NW6       29.90R
OFFUTT AFB     PTSUNNY   77  61  59 S8        29.87F
PLATTSMOUTH    PTSUNNY   76  60  57 S9        29.89S
WAHOO          MOCLDY    72  61  69 N22G32    29.92R
$$


USA.gov is the U.S. government's official web portal to all federal, state and local government web resources and services.